Location: Unspecified
(44.0704°N, 88.6889°W)
Time: 14:55:01
(UTC+01:00)

CZ-3 Stage 3 - Pass Details

Date: 15 November 2019
Orbit: 406 x 34784 km, 30.6° (Epoch: 15 December)

Event Time Altitude Azimuth Distance (km) Brightness Sun altitude
Rises 01:51:06 0° 206° (SSW) 12,945 9.1 -25.4°
Reaches altitude 10° 09:19:35 10° 205° (SSW) 29,008 10.1 -47.9°
Maximum altitude 11:03:06 24° 172° (S) 7,211 7.4 -29.9°
Drops below altitude 10° 11:15:16 10° 123° (ESE) 4,635 7.2 -27.7°
Sets 11:18:11 0° 107° (ESE) 4,695 7.7 -27.2°
